Time,TemperatureF,DewpointF,PressureIn,WindDirection,WindDirectionDegrees,WindSpeedMPH,WindSpeedGustMPH,Humidity,HourlyPrecipIn,Conditions,Clouds,dailyrainin,SoftwareType,DateUTC
2013-10-04 00:32:00,66.6,61.3,30.09,North,5,0.0,0.0,83,0.00,CLR,,0.00,WeatherDisplay:10.37,2013-10-04 04:32:00,
2013-10-04 00:33:00,66.6,61.3,30.09,North,5,0.0,0.0,83,0.00,CLR,,0.00,WeatherDisplay:10.37,2013-10-04 04:33:00,
2013-10-04 00:34:00,66.6,61.3,30.09,North,360,0.0,0.0,83,0.00,CLR,,0.00,WeatherDisplay:10.37,2013-10-04 04:34:00,
2013-10-04 00:35:00,66.5,61.2,30.09,North,5,0.0,0.0,83,0.00,CLR,,0.00,WeatherDisplay:10.37,2013-10-04 04:35:00,
2013-10-04 00:36:00,66.5,61.2,30.09,North,360,0.0,0.0,83,0.00,CLR,,0.00,WeatherDisplay:10.37,2013-10-04 04:36:00,
2013-10-04 00:37:00,66.5,61.2,30.09,North,360,0.0,0.0,83,0.00,CLR,,0.00,WeatherDisplay:10.37,2013-10-04 04:37:00,
2013-10-04 00:38:00,66.5,61.2,30.09,North,360,0.0,0.0,83,0.00,CLR,,0.00,WeatherDisplay:10.37,2013-10-04 04:38:00,
2013-10-04 00:42:00,66.4,61.1,30.09,North,360,0.0,0.0,83,0.00,CLR,,0.00,WeatherDisplay:10.37,2013-10-04 04:42:00,
2013-10-04 00:44:00,66.4,61.4,30.09,North,360,0.0,0.0,84,0.00,CLR,,0.00,WeatherDisplay:10.37,2013-10-04 04:44:00,
2013-10-04 00:45:00,66.3,61.3,30.09,North,5,0.0,0.0,84,0.00,CLR,,0.00,WeatherDisplay:10.37,2013-10-04 04:45:00,
2013-10-04 00:46:00,66.3,61.3,30.09,North,5,0.0,0.0,84,0.00,CLR,,0.00,WeatherDisplay:10.37,2013-10-04 04:46:00,
2013-10-04 00:47:00,66.3,61.0,30.09,North,5,0.0,0.0,83,0.00,CLR,,0.00,WeatherDisplay:10.37,2013-10-04 04:47:00,
2013-10-04 00:49:00,66.3,61.3,30.09,North,5,0.0,0.0,84,0.00,CLR,,0.00,WeatherDisplay:10.37,2013-10-04 04:49:00,
2013-10-04 00:50:00,66.3,61.3,30.09,North,5,0.0,0.0,84,0.00,CLR,,0.00,WeatherDisplay:10.37,2013-10-04 04:50:00,
2013-10-04 00:53:00,66.3,61.3,30.09,North,360,0.0,0.0,84,0.00,CLR,,0.00,WeatherDisplay:10.37,2013-10-04 04:53:00,
2013-10-04 00:56:00,66.2,61.2,30.09,North,5,0.0,0.0,84,0.00,CLR,,0.00,WeatherDisplay:10.37,2013-10-04 04:56:00,
2013-10-04 00:59:00,66.2,61.2,30.09,North,5,0.0,0.0,84,0.00,CLR,,0.00,WeatherDisplay:10.37,2013-10-04 04:59:00,
2013-10-04 01:00:00,66.1,61.1,30.09,North,5,0.0,0.0,84,0.00,CLR,,0.00,WeatherDisplay:10.37,2013-10-04 05:00:00,
2013-10-04 01:04:00,66.1,61.1,30.09,North,360,0.0,0.0,84,0.00,CLR,,0.00,WeatherDisplay:10.37,2013-10-04 05:04:00,
2013-10-04 01:05:00,66.1,61.1,30.09,North,360,0.0,0.0,84,0.00,CLR,,0.00,WeatherDisplay:10.37,2013-10-04 05:05:00,
2013-10-04 01:06:00,66.1,61.1,30.09,North,5,0.0,0.2,84,0.00,CLR,,0.00,WeatherDisplay:10.37,2013-10-04 05:06:00,
2013-10-04 01:09:00,66.0,61.0,30.09,North,5,0.0,0.0,84,0.00,CLR,,0.00,WeatherDisplay:10.37,2013-10-04 05:09:00,
2013-10-04 01:11:00,66.0,61.0,30.09,North,360,0.0,0.0,84,0.00,CLR,,0.00,WeatherDisplay:10.37,2013-10-04 05:11:00,
2013-10-04 01:14:00,65.9,60.9,30.09,North,5,0.0,0.0,84,0.00,CLR,,0.00,WeatherDisplay:10.37,2013-10-04 05:14:00,
2013-10-04 01:17:00,65.9,60.9,30.09,North,5,0.0,0.0,84,0.00,CLR,,0.00,WeatherDisplay:10.37,2013-10-04 05:17:00,
2013-10-04 01:20:00,65.8,60.8,30.09,North,360,0.0,0.0,84,0.00,CLR,,0.00,WeatherDisplay:10.37,2013-10-04 05:20:00,
2013-10-04 01:24:00,65.8,60.8,30.09,North,5,0.0,0.0,84,0.00,CLR,,0.00,WeatherDisplay:10.37,2013-10-04 05:24:00,
2013-10-04 01:26:00,65.7,60.7,30.09,North,360,0.0,0.0,84,0.00,CLR,,0.00,WeatherDisplay:10.37,2013-10-04 05:26:00,
2013-10-04 01:31:00,65.6,60.6,30.09,North,360,0.0,0.0,84,0.00,CLR,,0.00,WeatherDisplay:10.37,2013-10-04 05:31:00,
2013-10-04 01:36:00,65.5,60.9,30.09,North,5,0.0,0.0,85,0.00,CLR,,0.00,WeatherDisplay:10.37,2013-10-04 05:36:00,
2013-10-04 01:41:00,65.4,60.8,30.09,North,5,0.0,0.0,85,0.00,CLR,,0.00,WeatherDisplay:10.37,2013-10-04 05:41:00,
2013-10-04 01:46:00,65.2,60.6,30.09,North,5,0.0,0.0,85,0.00,CLR,,0.00,WeatherDisplay:10.37,2013-10-04 05:46:00,
2013-10-04 01:51:00,65.1,60.5,30.09,North,5,0.0,0.0,85,0.00,CLR,,0.00,WeatherDisplay:10.37,2013-10-04 05:51:00,
2013-10-04 01:56:00,65.0,60.7,30.09,North,5,0.0,0.0,86,0.00,CLR,,0.00,WeatherDisplay:10.37,2013-10-04 05:56:00,
2013-10-04 02:01:00,64.9,60.6,30.10,North,5,0.0,0.0,86,0.00,CLR,,0.00,WeatherDisplay:10.37,2013-10-04 06:01:00,
2013-10-04 02:06:00,64.8,60.5,30.10,North,360,0.0,0.0,86,0.00,CLR,,0.00,WeatherDisplay:10.37,2013-10-04 06:06:00,
2013-10-04 02:11:00,64.8,60.5,30.10,North,360,0.0,0.0,86,0.00,CLR,,0.00,WeatherDisplay:10.37,2013-10-04 06:11:00,
2013-10-04 02:16:00,64.8,60.5,30.10,North,5,0.0,0.0,86,0.00,CLR,,0.00,WeatherDisplay:10.37,2013-10-04 06:16:00,
2013-10-04 02:21:00,64.8,60.5,30.10,North,355,0.0,0.0,86,0.00,CLR,,0.00,WeatherDisplay:10.37,2013-10-04 06:21:00,
2013-10-04 02:26:00,64.8,60.5,30.09,NNW,348,0.0,0.0,86,0.00,CLR,,0.00,WeatherDisplay:10.37,2013-10-04 06:26:00,
2013-10-04 02:31:00,64.8,60.5,30.09,NNW,348,0.0,0.0,86,0.00,CLR,,0.00,WeatherDisplay:10.37,2013-10-04 06:31:00,
2013-10-04 02:36:00,64.8,60.5,30.09,NNW,348,0.0,0.0,86,0.00,CLR,,0.00,WeatherDisplay:10.37,2013-10-04 06:36:00,
2013-10-04 02:41:00,64.8,60.5,30.09,NNW,348,0.0,0.0,86,0.00,CLR,,0.00,WeatherDisplay:10.37,2013-10-04 06:41:00,
2013-10-04 02:46:00,64.7,60.4,30.09,NNW,348,0.0,0.0,86,0.00,CLR,,0.00,WeatherDisplay:10.37,2013-10-04 06:46:00,
2013-10-04 02:51:00,64.6,60.3,30.09,NNW,348,0.0,0.0,86,0.00,CLR,,0.00,WeatherDisplay:10.37,2013-10-04 06:51:00,
2013-10-04 02:56:00,64.5,60.5,30.09,NNW,348,0.0,0.0,87,0.00,CLR,,0.00,WeatherDisplay:10.37,2013-10-04 06:56:00,
2013-10-04 03:01:00,64.4,60.4,30.09,NNW,348,0.0,0.0,87,0.00,CLR,,0.00,WeatherDisplay:10.37,2013-10-04 07:01:00,
2013-10-04 03:06:00,64.3,60.3,30.08,NNW,348,0.0,0.0,87,0.00,CLR,,0.00,WeatherDisplay:10.37,2013-10-04 07:06:00,
2013-10-04 03:11:00,64.2,60.2,30.09,NNW,348,0.0,0.0,87,0.00,CLR,,0.00,WeatherDisplay:10.37,2013-10-04 07:11:00,
2013-10-04 03:16:00,64.1,60.2,30.08,NNW,348,0.0,0.0,87,0.00,CLR,,0.00,WeatherDisplay:10.37,2013-10-04 07:16:00,
2013-10-04 03:21:00,64.0,60.4,30.08,NNW,348,0.0,0.0,88,0.00,CLR,,0.00,WeatherDisplay:10.37,2013-10-04 07:21:00,
2013-10-04 03:26:00,64.0,60.4,30.08,NNW,348,0.0,0.0,88,0.00,CLR,,0.00,WeatherDisplay:10.37,2013-10-04 07:26:00,
2013-10-04 03:31:00,63.9,60.3,30.08,NNW,348,0.0,0.0,88,0.00,CLR,,0.00,WeatherDisplay:10.37,2013-10-04 07:31:00,
2013-10-04 03:36:00,63.8,60.2,30.08,NNW,348,0.0,0.0,88,0.00,CLR,,0.00,WeatherDisplay:10.37,2013-10-04 07:36:00,
2013-10-04 03:41:00,63.7,60.1,30.08,NNW,348,0.0,0.0,88,0.00,CLR,,0.00,WeatherDisplay:10.37,2013-10-04 07:41:00,
2013-10-04 03:46:00,63.7,60.1,30.08,NNW,348,0.0,0.0,88,0.00,CLR,,0.00,WeatherDisplay:10.37,2013-10-04 07:46:00,
2013-10-04 03:51:00,63.7,60.1,30.08,NNW,348,0.0,0.0,88,0.00,CLR,,0.00,WeatherDisplay:10.37,2013-10-04 07:51:00,
2013-10-04 03:56:00,63.6,60.0,30.08,WNW,294,0.0,0.0,88,0.00,CLR,,0.00,WeatherDisplay:10.37,2013-10-04 07:56:00,
2013-10-04 04:01:00,63.6,60.0,30.08,WNW,294,0.0,0.0,88,0.00,CLR,,0.00,WeatherDisplay:10.37,2013-10-04 08:01:00,
2013-10-04 04:06:00,63.6,60.0,30.09,WNW,294,0.0,0.0,88,0.00,CLR,,0.00,WeatherDisplay:10.37,2013-10-04 08:06:00,
2013-10-04 04:11:00,63.5,59.9,30.08,WNW,294,0.0,0.0,88,0.00,CLR,,0.00,WeatherDisplay:10.37,2013-10-04 08:11:00,
2013-10-04 04:16:00,63.5,59.9,30.08,SSW,195,0.0,0.0,88,0.00,CLR,,0.00,WeatherDisplay:10.37,2013-10-04 08:16:00,
2013-10-04 04:21:00,63.4,59.8,30.08,SSW,195,0.0,0.0,88,0.00,CLR,,0.00,WeatherDisplay:10.37,2013-10-04 08:21:00,
2013-10-04 04:26:00,63.4,59.8,30.08,SSW,196,0.0,0.0,88,0.00,CLR,,0.00,WeatherDisplay:10.37,2013-10-04 08:26:00,
2013-10-04 04:31:00,63.3,59.7,30.08,SSW,196,0.0,0.0,88,0.00,CLR,,0.00,WeatherDisplay:10.37,2013-10-04 08:31:00,
2013-10-04 04:36:00,63.2,59.9,30.08,SSW,196,0.0,0.0,89,0.00,CLR,,0.00,WeatherDisplay:10.37,2013-10-04 08:36:00,
2013-10-04 04:41:00,63.2,59.9,30.08,SSW,195,0.0,0.0,89,0.00,CLR,,0.00,WeatherDisplay:10.37,2013-10-04 08:41:00,
2013-10-04 04:46:00,63.0,59.7,30.09,SSW,196,0.0,0.0,89,0.00,CLR,,0.00,WeatherDisplay:10.37,2013-10-04 08:46:00,
2013-10-04 04:51:00,62.9,59.3,30.09,SSW,195,0.0,0.0,88,0.00,CLR,,0.00,WeatherDisplay:10.37,2013-10-04 08:51:00,
2013-10-04 04:56:00,62.7,59.1,30.09,SSW,195,0.0,0.0,88,0.00,CLR,,0.00,WeatherDisplay:10.37,2013-10-04 08:56:00,
2013-10-04 05:01:00,62.5,58.9,30.09,SSW,196,0.0,0.0,88,0.00,CLR,,0.00,WeatherDisplay:10.37,2013-10-04 09:01:00,
2013-10-04 05:06:00,62.3,58.7,30.09,SSW,196,0.0,0.0,88,0.00,CLR,,0.00,WeatherDisplay:10.37,2013-10-04 09:06:00,
2013-10-04 05:11:00,62.0,58.4,30.09,SSW,195,0.0,0.0,88,0.00,CLR,,0.00,WeatherDisplay:10.37,2013-10-04 09:11:00,
2013-10-04 05:16:00,61.7,58.1,30.09,SSW,196,0.0,0.0,88,0.00,CLR,,0.00,WeatherDisplay:10.37,2013-10-04 09:16:00,
2013-10-04 05:21:00,61.5,57.9,30.09,SSW,196,0.0,0.0,88,0.00,CLR,,0.00,WeatherDisplay:10.37,2013-10-04 09:21:00,
2013-10-04 05:26:00,61.3,58.0,30.09,SSW,196,0.0,0.0,89,0.00,CLR,,0.00,WeatherDisplay:10.37,2013-10-04 09:26:00,
2013-10-04 05:31:00,61.2,57.9,30.09,SSW,195,0.0,0.0,89,0.00,CLR,,0.00,WeatherDisplay:10.37,2013-10-04 09:31:00,
2013-10-04 05:36:00,61.0,57.7,30.10,SSW,195,0.0,0.0,89,0.00,CLR,,0.00,WeatherDisplay:10.37,2013-10-04 09:36:00,
2013-10-04 05:41:00,60.9,57.9,30.09,SSW,196,0.0,0.0,90,0.00,CLR,,0.00,WeatherDisplay:10.37,2013-10-04 09:41:00,
2013-10-04 05:46:00,60.8,58.2,30.09,SSW,196,0.0,0.0,91,0.00,CLR,,0.00,WeatherDisplay:10.37,2013-10-04 09:46:00,
2013-10-04 05:51:00,60.7,58.1,30.10,SSW,195,0.0,0.0,91,0.00,CLR,,0.00,WeatherDisplay:10.37,2013-10-04 09:51:00,
2013-10-04 05:56:00,60.7,58.1,30.10,SSW,196,0.0,0.0,91,0.00,CLR,,0.00,WeatherDisplay:10.37,2013-10-04 09:56:00,
2013-10-04 06:01:00,60.6,58.3,30.10,SSW,196,0.0,0.0,92,0.00,CLR,,0.00,WeatherDisplay:10.37,2013-10-04 10:01:00,
2013-10-04 06:06:00,60.5,58.2,30.10,SSW,195,0.0,0.0,92,0.00,CLR,,0.00,WeatherDisplay:10.37,2013-10-04 10:06:00,
2013-10-04 06:11:00,60.5,58.2,30.10,SSW,196,0.0,0.0,92,0.00,CLR,,0.00,WeatherDisplay:10.37,2013-10-04 10:11:00,
2013-10-04 06:16:00,60.5,58.5,30.10,SSW,195,0.0,0.0,93,0.00,CLR,,0.00,WeatherDisplay:10.37,2013-10-04 10:16:00,
2013-10-04 06:21:00,60.4,58.4,30.10,SSW,196,0.0,0.0,93,0.00,CLR,,0.00,WeatherDisplay:10.37,2013-10-04 10:21:00,
2013-10-04 06:26:00,60.4,58.4,30.10,SSW,195,0.0,0.0,93,0.00,CLR,,0.00,WeatherDisplay:10.37,2013-10-04 10:26:00,
2013-10-04 06:31:00,60.3,58.3,30.10,SSW,196,0.0,0.0,93,0.00,CLR,,0.00,WeatherDisplay:10.37,2013-10-04 10:31:00,
2013-10-04 06:36:00,60.3,58.3,30.10,SSW,196,0.0,0.0,93,0.00,CLR,,0.00,WeatherDisplay:10.37,2013-10-04 10:36:00,
2013-10-04 06:41:00,60.2,58.2,30.10,SSW,195,0.0,0.0,93,0.00,CLR,,0.00,WeatherDisplay:10.37,2013-10-04 10:41:00,
2013-10-04 06:46:00,60.3,58.6,30.10,SSW,195,0.0,0.0,94,0.00,CLR,,0.00,WeatherDisplay:10.37,2013-10-04 10:46:00,
2013-10-04 06:51:00,60.3,58.6,30.10,SSW,196,0.0,0.0,94,0.00,CLR,,0.00,WeatherDisplay:10.37,2013-10-04 10:51:00,
2013-10-04 06:56:00,60.4,58.7,30.11,SSW,195,0.0,0.0,94,0.00,CLR,,0.00,WeatherDisplay:10.37,2013-10-04 10:56:00,
2013-10-04 07:01:00,60.2,58.5,30.11,SSW,198,0.0,0.0,94,0.00,CLR,,0.00,WeatherDisplay:10.37,2013-10-04 11:01:00,
2013-10-04 07:06:00,59.9,57.9,30.10,SSW,198,0.0,0.0,93,0.00,CLR,,0.00,WeatherDisplay:10.37,2013-10-04 11:06:00,
2013-10-04 07:11:00,59.8,57.8,30.10,SSW,198,0.0,0.0,93,0.00,CLR,,0.00,WeatherDisplay:10.37,2013-10-04 11:11:00,
2013-10-04 07:16:00,59.8,58.1,30.10,SSW,198,0.0,0.0,94,0.00,CLR,,0.00,WeatherDisplay:10.37,2013-10-04 11:16:00,
2013-10-04 07:21:00,59.8,58.1,30.11,SSW,198,0.0,0.0,94,0.00,CLR,,0.00,WeatherDisplay:10.37,2013-10-04 11:21:00,
2013-10-04 07:26:00,59.8,58.1,30.11,SSW,198,0.0,0.0,94,0.00,CLR,,0.00,WeatherDisplay:10.37,2013-10-04 11:26:00,
2013-10-04 07:31:00,59.6,57.9,30.11,SSW,198,0.0,0.0,94,0.00,CLR,,0.00,WeatherDisplay:10.37,2013-10-04 11:31:00,
2013-10-04 07:36:00,59.5,57.8,30.11,SSW,198,0.0,0.0,94,0.00,CLR,,0.00,WeatherDisplay:10.37,2013-10-04 11:36:00,
2013-10-04 07:41:00,59.4,57.7,30.11,SSW,198,0.0,0.0,94,0.00,CLR,,0.00,WeatherDisplay:10.37,2013-10-04 11:41:00,
2013-10-04 07:46:00,59.3,57.6,30.11,SSW,198,0.0,0.0,94,0.00,CLR,,0.00,WeatherDisplay:10.37,2013-10-04 11:46:00,
2013-10-04 07:51:00,59.4,57.7,30.11,SSW,198,0.0,0.0,94,0.00,CLR,,0.00,WeatherDisplay:10.37,2013-10-04 11:51:00,
2013-10-04 07:56:00,59.5,57.8,30.11,SSW,198,0.0,0.0,94,0.00,CLR,,0.00,WeatherDisplay:10.37,2013-10-04 11:56:00,
2013-10-04 08:01:00,59.6,58.2,30.12,SSW,198,0.0,0.0,95,0.00,CLR,,0.00,WeatherDisplay:10.37,2013-10-04 12:01:00,
2013-10-04 08:06:00,59.8,58.4,30.12,SSW,198,0.0,0.0,95,0.00,CLR,,0.00,WeatherDisplay:10.37,2013-10-04 12:06:00,
2013-10-04 08:11:00,60.0,58.6,30.12,SSW,198,0.0,0.0,95,0.00,CLR,,0.00,WeatherDisplay:10.37,2013-10-04 12:11:00,
2013-10-04 08:16:00,60.4,59.0,30.12,SSW,198,0.0,0.0,95,0.00,CLR,,0.00,WeatherDisplay:10.37,2013-10-04 12:16:00,
2013-10-04 08:21:00,60.6,59.2,30.12,SSW,198,0.0,0.0,95,0.00,CLR,,0.00,WeatherDisplay:10.37,2013-10-04 12:21:00,
2013-10-04 08:26:00,60.8,59.4,30.13,SSW,198,0.0,0.0,95,0.00,CLR,,0.00,WeatherDisplay:10.37,2013-10-04 12:26:00,
2013-10-04 08:31:00,61.2,59.8,30.13,SSW,198,0.0,0.0,95,0.00,CLR,,0.00,WeatherDisplay:10.37,2013-10-04 12:31:00,
2013-10-04 08:36:00,61.7,60.3,30.13,SSW,198,0.0,0.0,95,0.00,CLR,,0.00,WeatherDisplay:10.37,2013-10-04 12:36:00,
2013-10-04 08:41:00,62.0,60.6,30.13,SSW,198,0.0,0.0,95,0.00,CLR,,0.00,WeatherDisplay:10.37,2013-10-04 12:41:00,
2013-10-04 08:46:00,62.5,61.3,30.13,SSW,198,1.2,0.0,96,0.00,CLR,,0.00,WeatherDisplay:10.37,2013-10-04 12:46:00,
2013-10-04 08:51:00,62.9,61.4,30.13,SSW,198,0.0,0.0,95,0.00,CLR,,0.00,WeatherDisplay:10.37,2013-10-04 12:51:00,
2013-10-04 08:56:00,63.2,62.0,30.14,SSW,198,0.0,0.0,96,0.00,CLR,,0.00,WeatherDisplay:10.37,2013-10-04 12:56:00,
2013-10-04 09:01:00,63.6,62.4,30.14,SSW,198,0.0,0.0,96,0.00,CLR,,0.00,WeatherDisplay:10.37,2013-10-04 13:01:00,
2013-10-04 09:06:00,64.1,62.6,30.14,SSW,198,0.0,0.0,95,0.00,CLR,,0.00,WeatherDisplay:10.37,2013-10-04 13:06:00,
2013-10-04 09:11:00,64.6,63.4,30.14,SSW,198,0.0,0.0,96,0.00,CLR,,0.00,WeatherDisplay:10.37,2013-10-04 13:11:00,
2013-10-04 09:16:00,64.9,63.4,30.14,SSW,198,0.0,0.0,95,0.00,CLR,,0.00,WeatherDisplay:10.37,2013-10-04 13:16:00,
2013-10-04 09:21:00,65.4,63.9,30.14,SSW,198,0.0,0.0,95,0.00,CLR,,0.00,WeatherDisplay:10.37,2013-10-04 13:21:00,
2013-10-04 09:26:00,65.9,64.4,30.14,SSW,209,0.0,0.0,95,0.00,CLR,,0.00,WeatherDisplay:10.37,2013-10-04 13:26:00,
2013-10-04 09:31:00,66.5,64.7,30.14,SSW,209,0.0,0.0,94,0.00,CLR,,0.00,WeatherDisplay:10.37,2013-10-04 13:31:00,
2013-10-04 09:36:00,67.1,65.0,30.14,SSW,209,0.0,0.0,93,0.00,CLR,,0.00,WeatherDisplay:10.37,2013-10-04 13:36:00,
2013-10-04 09:41:00,67.7,65.0,30.14,West,260,3.5,3.5,91,0.00,CLR,,0.00,WeatherDisplay:10.37,2013-10-04 13:41:00,
2013-10-04 09:46:00,68.4,65.4,30.14,West,260,0.0,0.0,90,0.00,CLR,,0.00,WeatherDisplay:10.37,2013-10-04 13:46:00,
2013-10-04 09:51:00,69.1,65.4,30.14,WNW,286,2.0,2.0,88,0.00,CLR,,0.00,WeatherDisplay:10.37,2013-10-04 13:51:00,
2013-10-04 09:56:00,69.7,65.3,30.14,WSW,257,3.5,3.5,86,0.00,CLR,,0.00,WeatherDisplay:10.37,2013-10-04 13:56:00,
2013-10-04 10:01:00,70.3,66.2,30.14,WSW,257,0.0,0.0,87,0.00,CLR,,0.00,WeatherDisplay:10.37,2013-10-04 14:01:00,
2013-10-04 10:06:00,70.7,65.6,30.14,WSW,257,0.0,0.0,84,0.00,CLR,,0.00,WeatherDisplay:10.37,2013-10-04 14:06:00,
2013-10-04 10:11:00,71.1,65.7,30.14,West,259,3.5,3.5,83,0.00,CLR,,0.00,WeatherDisplay:10.37,2013-10-04 14:11:00,
2013-10-04 10:16:00,71.4,65.3,30.14,West,265,3.5,3.5,81,0.00,CLR,,0.00,WeatherDisplay:10.37,2013-10-04 14:16:00,
2013-10-04 10:21:00,71.8,65.3,30.14,West,263,0.0,1.3,80,0.00,CLR,,0.00,WeatherDisplay:10.37,2013-10-04 14:21:00,
2013-10-04 10:26:00,72.2,65.7,30.14,West,263,1.2,0.0,80,0.00,CLR,,0.00,WeatherDisplay:10.37,2013-10-04 14:26:00,
2013-10-04 10:31:00,72.6,65.3,30.14,West,263,3.5,0.0,78,0.00,CLR,,0.00,WeatherDisplay:10.37,2013-10-04 14:31:00,
2013-10-04 10:36:00,73.1,66.2,30.14,West,263,0.0,0.0,79,0.00,CLR,,0.00,WeatherDisplay:10.37,2013-10-04 14:36:00,
2013-10-04 10:41:00,73.6,65.6,30.14,West,263,3.5,3.5,76,0.00,CLR,,0.00,WeatherDisplay:10.37,2013-10-04 14:41:00,
2013-10-04 10:46:00,74.0,66.0,30.14,West,263,1.2,1.2,76,0.00,CLR,,0.00,WeatherDisplay:10.37,2013-10-04 14:46:00,
2013-10-04 10:51:00,74.5,66.4,30.14,West,263,0.0,0.0,76,0.00,CLR,,0.00,WeatherDisplay:10.37,2013-10-04 14:51:00,
2013-10-04 10:56:00,75.1,66.6,30.14,West,263,0.0,0.0,75,0.00,CLR,,0.00,WeatherDisplay:10.37,2013-10-04 14:56:00,
2013-10-04 11:01:00,75.6,67.9,30.14,WSW,254,3.0,3.0,77,0.00,CLR,,0.00,WeatherDisplay:10.37,2013-10-04 15:01:00,
2013-10-04 11:06:00,76.1,66.8,30.14,WSW,253,0.0,0.0,73,0.00,CLR,,0.00,WeatherDisplay:10.37,2013-10-04 15:06:00,
2013-10-04 11:11:00,76.5,66.8,30.14,WSW,253,3.5,3.5,72,0.00,CLR,,0.00,WeatherDisplay:10.37,2013-10-04 15:11:00,
2013-10-04 11:16:00,76.8,66.7,30.14,West,265,0.0,0.0,71,0.00,CLR,,0.00,WeatherDisplay:10.37,2013-10-04 15:16:00,
2013-10-04 11:17:00,76.9,67.6,30.14,West,265,0.0,0.0,73,0.00,CLR,,0.00,WeatherDisplay:10.37,2013-10-04 15:17:00,
2013-10-04 11:22:00,77.3,66.3,30.14,WSW,254,1.0,0.0,69,0.00,CLR,,0.00,WeatherDisplay:10.37,2013-10-04 15:22:00,
2013-10-04 11:27:00,77.8,68.4,30.14,WSW,248,0.0,0.0,73,0.00,CLR,,0.00,WeatherDisplay:10.37,2013-10-04 15:27:00,
2013-10-04 11:32:00,78.5,67.5,30.14,WSW,252,2.3,0.0,69,0.00,CLR,,0.00,WeatherDisplay:10.37,2013-10-04 15:32:00,
2013-10-04 11:37:00,78.7,67.7,30.14,WSW,256,0.0,0.0,69,0.00,CLR,,0.00,WeatherDisplay:10.37,2013-10-04 15:37:00,
2013-10-04 11:42:00,78.7,66.4,30.13,NNE,26,4.6,4.6,66,0.00,CLR,,0.00,WeatherDisplay:10.37,2013-10-04 15:42:00,
2013-10-04 11:47:00,78.7,66.8,30.13,NNE,26,1.2,0.0,67,0.00,CLR,,0.00,WeatherDisplay:10.37,2013-10-04 15:47:00,
2013-10-04 11:52:00,79.1,67.2,30.13,NNE,30,4.6,4.6,67,0.00,CLR,,0.00,WeatherDisplay:10.37,2013-10-04 15:52:00,
2013-10-04 11:57:00,79.2,66.4,30.13,NE,55,3.5,3.5,65,0.00,CLR,,0.00,WeatherDisplay:10.37,2013-10-04 15:57:00,
2013-10-04 12:02:00,79.7,67.3,30.13,NNE,30,4.6,4.6,66,0.00,CLR,,0.00,WeatherDisplay:10.37,2013-10-04 16:02:00,
2013-10-04 12:07:00,79.8,66.5,30.13,NE,48,0.0,0.0,64,0.00,CLR,,0.00,WeatherDisplay:10.37,2013-10-04 16:07:00,
2013-10-04 12:12:00,80.2,66.9,30.13,North,9,3.5,3.5,64,0.00,CLR,,0.00,WeatherDisplay:10.37,2013-10-04 16:12:00,
2013-10-04 12:17:00,80.3,66.6,30.13,North,355,4.6,4.6,63,0.00,CLR,,0.00,WeatherDisplay:10.37,2013-10-04 16:17:00,
2013-10-04 12:22:00,80.7,66.9,30.13,NNW,340,0.0,0.0,63,0.00,CLR,,0.00,WeatherDisplay:10.37,2013-10-04 16:22:00,
2013-10-04 12:27:00,81.2,67.9,30.12,NNW,348,0.0,0.0,64,0.00,CLR,,0.00,WeatherDisplay:10.37,2013-10-04 16:27:00,
2013-10-04 12:32:00,81.6,67.3,30.12,East,92,0.0,0.1,62,0.00,CLR,,0.00,WeatherDisplay:10.37,2013-10-04 16:32:00,
2013-10-04 12:37:00,81.8,67.0,30.12,NNW,346,0.0,0.0,61,0.00,CLR,,0.00,WeatherDisplay:10.37,2013-10-04 16:37:00,
2013-10-04 12:42:00,82.1,66.8,30.12,North,355,0.0,0.0,60,0.00,CLR,,0.00,WeatherDisplay:10.37,2013-10-04 16:42:00,
2013-10-04 12:47:00,82.3,66.5,30.12,North,350,2.3,0.0,59,0.00,CLR,,0.00,WeatherDisplay:10.37,2013-10-04 16:47:00,
2013-10-04 12:52:00,82.1,65.9,30.12,NE,53,3.5,3.5,58,0.00,CLR,,0.00,WeatherDisplay:10.37,2013-10-04 16:52:00,
2013-10-04 12:57:00,81.9,66.6,30.12,NNE,25,5.8,5.8,60,0.00,CLR,,0.00,WeatherDisplay:10.37,2013-10-04 16:57:00,
2013-10-04 13:02:00,81.9,65.7,30.11,NE,40,4.6,4.6,58,0.00,CLR,,0.00,WeatherDisplay:10.37,2013-10-04 17:02:00,
2013-10-04 13:07:00,81.9,66.6,30.11,NNE,32,3.5,3.5,60,0.00,CLR,,0.00,WeatherDisplay:10.37,2013-10-04 17:07:00,
2013-10-04 13:12:00,82.1,66.4,30.11,North,360,4.6,4.6,59,0.00,CLR,,0.00,WeatherDisplay:10.37,2013-10-04 17:12:00,
2013-10-04 13:17:00,82.2,66.4,30.11,NE,36,2.0,2.0,59,0.00,CLR,,0.00,WeatherDisplay:10.37,2013-10-04 17:17:00,
2013-10-04 13:22:00,82.2,65.4,30.11,NE,34,6.9,6.9,57,0.00,CLR,,0.00,WeatherDisplay:10.37,2013-10-04 17:22:00,
2013-10-04 13:27:00,82.4,66.6,30.11,East,89,0.0,0.0,59,0.00,CLR,,0.00,WeatherDisplay:10.37,2013-10-04 17:27:00,
2013-10-04 13:32:00,82.5,65.2,30.10,SE,128,0.0,0.0,56,0.00,CLR,,0.00,WeatherDisplay:10.37,2013-10-04 17:32:00,
2013-10-04 13:37:00,82.7,65.4,30.10,ESE,107,4.6,4.6,56,0.00,CLR,,0.00,WeatherDisplay:10.37,2013-10-04 17:37:00,
2013-10-04 14:02:00,83.6,65.2,30.09,ENE,63,0.0,0.0,54,0.00,CLR,,0.00,WeatherDisplay:10.37,2013-10-04 18:02:00,
2013-10-04 14:07:00,83.5,66.2,30.08,ESE,114,0.0,0.0,56,0.00,CLR,,0.00,WeatherDisplay:10.37,2013-10-04 18:07:00,
2013-10-04 14:12:00,83.3,64.9,30.08,East,90,1.2,0.0,54,0.00,CLR,,0.00,WeatherDisplay:10.37,2013-10-04 18:12:00,
2013-10-04 14:17:00,83.4,65.0,30.08,ESE,107,0.0,0.0,54,0.00,CLR,,0.00,WeatherDisplay:10.37,2013-10-04 18:17:00,
2013-10-04 14:22:00,83.6,66.8,30.08,SSW,202,3.5,3.5,57,0.00,CLR,,0.00,WeatherDisplay:10.37,2013-10-04 18:22:00,
2013-10-04 14:27:00,83.8,68.9,30.08,SE,142,0.0,0.0,61,0.00,CLR,,0.00,WeatherDisplay:10.37,2013-10-04 18:27:00,
2013-10-04 14:32:00,83.6,66.2,30.08,ENE,78,0.0,0.0,56,0.00,CLR,,0.00,WeatherDisplay:10.37,2013-10-04 18:32:00,
2013-10-04 14:37:00,83.4,66.6,30.08,ENE,78,0.0,0.0,57,0.00,CLR,,0.00,WeatherDisplay:10.37,2013-10-04 18:37:00,
2013-10-04 14:42:00,83.1,66.8,30.08,ENE,78,0.0,0.0,58,0.00,CLR,,0.00,WeatherDisplay:10.37,2013-10-04 18:42:00,
2013-10-04 14:47:00,82.8,66.5,30.08,North,9,0.0,0.0,58,0.00,CLR,,0.00,WeatherDisplay:10.37,2013-10-04 18:47:00,
2013-10-04 14:52:00,82.3,65.5,30.08,ESE,117,0.0,0.0,57,0.00,CLR,,0.00,WeatherDisplay:10.37,2013-10-04 18:52:00,
2013-10-04 14:57:00,82.0,65.8,30.08,ESE,117,0.0,0.0,58,0.00,CLR,,0.00,WeatherDisplay:10.37,2013-10-04 18:57:00,
2013-10-04 15:02:00,81.8,65.1,30.08,ESE,117,0.0,0.0,57,0.00,CLR,,0.00,WeatherDisplay:10.37,2013-10-04 19:02:00,
2013-10-04 15:07:00,81.8,68.0,30.07,ESE,117,0.0,0.0,63,0.00,CLR,,0.00,WeatherDisplay:10.37,2013-10-04 19:07:00,
2013-10-04 15:12:00,82.3,67.5,30.07,ESE,117,0.0,0.0,61,0.00,CLR,,0.00,WeatherDisplay:10.37,2013-10-04 19:12:00,
2013-10-04 15:17:00,83.1,66.8,30.07,SE,127,1.2,0.0,58,0.00,CLR,,0.00,WeatherDisplay:10.37,2013-10-04 19:17:00,
2013-10-04 15:22:00,83.7,66.8,30.07,SE,129,0.0,0.0,57,0.00,CLR,,0.00,WeatherDisplay:10.37,2013-10-04 19:22:00,
2013-10-04 15:27:00,84.1,65.7,30.07,SE,126,0.0,0.0,54,0.00,CLR,,0.00,WeatherDisplay:10.37,2013-10-04 19:27:00,
2013-10-04 15:32:00,84.3,66.4,30.07,SSE,150,2.3,0.0,55,0.00,CLR,,0.00,WeatherDisplay:10.37,2013-10-04 19:32:00,
2013-10-04 15:37:00,84.6,66.7,30.07,South,178,3.5,3.5,55,0.00,CLR,,0.00,WeatherDisplay:10.37,2013-10-04 19:37:00,
2013-10-04 15:42:00,84.8,66.3,30.07,ENE,71,1.2,0.0,54,0.00,CLR,,0.00,WeatherDisplay:10.37,2013-10-04 19:42:00,
2013-10-04 15:47:00,84.9,66.9,30.07,East,96,0.0,0.2,55,0.00,CLR,,0.00,WeatherDisplay:10.37,2013-10-04 19:47:00,
2013-10-04 15:52:00,85.1,66.6,30.07,NE,42,4.0,4.0,54,0.00,CLR,,0.00,WeatherDisplay:10.37,2013-10-04 19:52:00,
2013-10-04 15:57:00,84.8,66.3,30.07,ENE,68,0.0,0.0,54,0.00,CLR,,0.00,WeatherDisplay:10.37,2013-10-04 19:57:00,
2013-10-04 16:02:00,84.6,65.6,30.07,SW,227,0.0,0.0,53,0.00,CLR,,0.00,WeatherDisplay:10.37,2013-10-04 20:02:00,
2013-10-04 16:07:00,84.7,65.7,30.06,WSW,252,0.0,0.0,53,0.00,CLR,,0.00,WeatherDisplay:10.37,2013-10-04 20:07:00,
2013-10-04 16:12:00,85.1,67.1,30.06,WSW,252,0.0,0.0,55,0.00,CLR,,0.00,WeatherDisplay:10.37,2013-10-04 20:12:00,
2013-10-04 16:17:00,85.4,65.8,30.06,South,174,3.5,3.5,52,0.00,CLR,,0.00,WeatherDisplay:10.37,2013-10-04 20:17:00,
2013-10-04 16:22:00,85.5,66.4,30.06,South,173,0.0,0.0,53,0.00,CLR,,0.00,WeatherDisplay:10.37,2013-10-04 20:22:00,
2013-10-04 16:27:00,85.6,65.4,30.06,SSW,213,0.0,0.0,51,0.00,CLR,,0.00,WeatherDisplay:10.37,2013-10-04 20:27:00,
2013-10-04 16:32:00,85.7,65.5,30.06,SSW,213,0.0,0.0,51,0.00,CLR,,0.00,WeatherDisplay:10.37,2013-10-04 20:32:00,
2013-10-04 16:37:00,85.6,66.5,30.06,West,265,3.5,3.5,53,0.00,CLR,,0.00,WeatherDisplay:10.37,2013-10-04 20:37:00,
2013-10-04 16:42:00,85.4,65.8,30.06,West,259,3.5,3.5,52,0.00,CLR,,0.00,WeatherDisplay:10.37,2013-10-04 20:42:00,
2013-10-04 16:47:00,85.2,65.0,30.06,WNW,288,0.0,0.0,51,0.00,CLR,,0.00,WeatherDisplay:10.37,2013-10-04 20:47:00,
2013-10-04 16:52:00,85.2,65.6,30.06,West,266,0.0,0.0,52,0.00,CLR,,0.00,WeatherDisplay:10.37,2013-10-04 20:52:00,
2013-10-04 16:57:00,85.3,67.3,30.06,WSW,248,0.0,0.0,55,0.00,CLR,,0.00,WeatherDisplay:10.37,2013-10-04 20:57:00,
2013-10-04 17:02:00,85.3,67.8,30.06,WSW,248,0.0,0.0,56,0.00,CLR,,0.00,WeatherDisplay:10.37,2013-10-04 21:02:00,
2013-10-04 17:07:00,85.2,68.2,30.06,WSW,248,0.0,0.0,57,0.00,CLR,,0.00,WeatherDisplay:10.37,2013-10-04 21:07:00,
2013-10-04 17:12:00,85.1,66.0,30.06,SE,129,0.0,0.0,53,0.00,CLR,,0.00,WeatherDisplay:10.37,2013-10-04 21:12:00,
2013-10-04 17:17:00,84.8,66.3,30.06,East,84,1.2,0.0,54,0.00,CLR,,0.00,WeatherDisplay:10.37,2013-10-04 21:17:00,
2013-10-04 17:22:00,84.6,65.6,30.06,ESE,106,0.0,0.0,53,0.00,CLR,,0.00,WeatherDisplay:10.37,2013-10-04 21:22:00,
2013-10-04 17:27:00,84.6,65.6,30.06,ESE,106,0.0,0.0,53,0.00,CLR,,0.00,WeatherDisplay:10.37,2013-10-04 21:27:00,
2013-10-04 17:32:00,84.5,67.1,30.06,ESE,106,0.0,0.0,56,0.00,CLR,,0.00,WeatherDisplay:10.37,2013-10-04 21:32:00,
2013-10-04 17:37:00,84.4,69.0,30.06,ESE,106,0.0,0.0,60,0.00,CLR,,0.00,WeatherDisplay:10.37,2013-10-04 21:37:00,
2013-10-04 17:42:00,84.4,68.0,30.06,ESE,106,0.0,0.0,58,0.00,CLR,,0.00,WeatherDisplay:10.37,2013-10-04 21:42:00,
2013-10-04 17:47:00,84.2,67.3,30.06,ESE,106,0.0,0.0,57,0.00,CLR,,0.00,WeatherDisplay:10.37,2013-10-04 21:47:00,
2013-10-04 17:52:00,84.0,67.1,30.06,ESE,106,0.0,0.0,57,0.00,CLR,,0.00,WeatherDisplay:10.37,2013-10-04 21:52:00,
2013-10-04 17:57:00,83.8,67.4,30.06,ESE,106,0.0,0.0,58,0.00,CLR,,0.00,WeatherDisplay:10.37,2013-10-04 21:57:00,
2013-10-04 18:02:00,83.7,69.3,30.06,ESE,106,0.0,0.0,62,0.00,CLR,,0.00,WeatherDisplay:10.37,2013-10-04 22:02:00,
2013-10-04 18:07:00,83.5,68.2,30.06,SSW,196,0.0,0.0,60,0.00,CLR,,0.00,WeatherDisplay:10.37,2013-10-04 22:07:00,
2013-10-04 18:12:00,83.2,67.9,30.06,SSW,197,0.0,0.0,60,0.00,CLR,,0.00,WeatherDisplay:10.37,2013-10-04 22:12:00,
2013-10-04 18:17:00,82.9,67.6,30.06,SSE,163,0.0,0.0,60,0.00,CLR,,0.00,WeatherDisplay:10.37,2013-10-04 22:17:00,
2013-10-04 18:22:00,82.6,67.3,30.06,SE,144,0.0,0.0,60,0.00,CLR,,0.00,WeatherDisplay:10.37,2013-10-04 22:22:00,
2013-10-04 18:27:00,82.1,66.8,30.07,SE,144,0.0,0.0,60,0.00,CLR,,0.00,WeatherDisplay:10.37,2013-10-04 22:27:00,
2013-10-04 18:32:00,81.5,66.8,30.06,SE,145,0.0,0.0,61,0.00,CLR,,0.00,WeatherDisplay:10.37,2013-10-04 22:32:00,
2013-10-04 18:37:00,81.0,66.8,30.07,SE,146,0.0,0.0,62,0.00,CLR,,0.00,WeatherDisplay:10.37,2013-10-04 22:37:00,
2013-10-04 18:42:00,80.5,66.3,30.07,East,84,0.0,0.0,62,0.00,CLR,,0.00,WeatherDisplay:10.37,2013-10-04 22:42:00,
2013-10-04 18:47:00,80.0,66.3,30.07,ESE,110,0.0,0.0,63,0.00,CLR,,0.00,WeatherDisplay:10.37,2013-10-04 22:47:00,
2013-10-04 18:52:00,79.6,66.3,30.07,South,182,0.0,0.0,64,0.00,CLR,,0.00,WeatherDisplay:10.37,2013-10-04 22:52:00,
2013-10-04 18:57:00,79.0,66.2,30.07,South,182,1.2,0.0,65,0.00,CLR,,0.00,WeatherDisplay:10.37,2013-10-04 22:57:00,
2013-10-04 19:02:00,78.7,65.9,30.07,South,182,0.0,0.0,65,0.00,CLR,,0.00,WeatherDisplay:10.37,2013-10-04 23:02:00,
2013-10-04 19:07:00,78.1,65.8,30.07,South,182,0.0,0.0,66,0.00,CLR,,0.00,WeatherDisplay:10.37,2013-10-04 23:07:00,
2013-10-04 19:12:00,77.6,65.8,30.07,South,182,0.0,0.0,67,0.00,CLR,,0.00,WeatherDisplay:10.37,2013-10-04 23:12:00,
2013-10-04 19:17:00,77.2,66.2,30.07,South,182,0.0,0.0,69,0.00,CLR,,0.00,WeatherDisplay:10.37,2013-10-04 23:17:00,
2013-10-04 19:22:00,76.8,65.9,30.07,South,182,0.0,0.0,69,0.00,CLR,,0.00,WeatherDisplay:10.37,2013-10-04 23:22:00,
2013-10-04 19:27:00,76.4,65.9,30.07,South,182,0.0,0.0,70,0.00,CLR,,0.00,WeatherDisplay:10.37,2013-10-04 23:27:00,
2013-10-04 19:32:00,76.0,65.5,30.07,South,182,0.0,0.0,70,0.00,CLR,,0.00,WeatherDisplay:10.37,2013-10-04 23:32:00,
2013-10-04 19:37:00,75.7,65.2,30.07,South,182,0.0,0.0,70,0.00,CLR,,0.00,WeatherDisplay:10.37,2013-10-04 23:37:00,
2013-10-04 19:42:00,75.3,65.2,30.07,South,182,0.0,0.0,71,0.00,CLR,,0.00,WeatherDisplay:10.37,2013-10-04 23:42:00,
2013-10-04 19:47:00,75.1,65.1,30.07,South,182,0.0,0.0,71,0.00,CLR,,0.00,WeatherDisplay:10.37,2013-10-04 23:47:00,
2013-10-04 19:52:00,74.8,64.8,30.07,South,182,0.0,0.0,71,0.00,CLR,,0.00,WeatherDisplay:10.37,2013-10-04 23:52:00,
2013-10-04 19:57:00,74.6,65.0,30.08,South,182,0.0,0.0,72,0.00,CLR,,0.00,WeatherDisplay:10.37,2013-10-04 23:57:00,
2013-10-04 20:02:00,74.3,64.7,30.07,South,182,0.0,0.0,72,0.00,CLR,,0.00,WeatherDisplay:10.37,2013-10-05 00:02:00,
2013-10-04 20:07:00,74.1,64.9,30.08,South,182,0.0,0.0,73,0.00,CLR,,0.00,WeatherDisplay:10.37,2013-10-05 00:07:00,
2013-10-04 20:12:00,73.9,64.7,30.08,South,182,0.0,0.0,73,0.00,CLR,,0.00,WeatherDisplay:10.37,2013-10-05 00:12:00,
2013-10-04 20:17:00,73.7,64.5,30.08,South,182,0.0,0.0,73,0.00,CLR,,0.00,WeatherDisplay:10.37,2013-10-05 00:17:00,
2013-10-04 20:22:00,73.6,64.8,30.08,South,182,0.0,0.0,74,0.00,CLR,,0.00,WeatherDisplay:10.37,2013-10-05 00:22:00,
2013-10-04 20:27:00,73.5,64.7,30.08,South,182,0.0,0.0,74,0.00,CLR,,0.00,WeatherDisplay:10.37,2013-10-05 00:27:00,
2013-10-04 20:32:00,73.4,64.6,30.09,South,182,0.0,0.0,74,0.00,CLR,,0.00,WeatherDisplay:10.37,2013-10-05 00:32:00,
2013-10-04 20:37:00,73.3,64.5,30.09,South,182,0.0,0.0,74,0.00,CLR,,0.00,WeatherDisplay:10.37,2013-10-05 00:37:00,
2013-10-04 20:42:00,73.2,64.4,30.09,South,182,0.0,0.0,74,0.00,CLR,,0.00,WeatherDisplay:10.37,2013-10-05 00:42:00,
2013-10-04 20:47:00,73.1,64.3,30.09,South,182,0.0,0.0,74,0.00,CLR,,0.00,WeatherDisplay:10.37,2013-10-05 00:47:00,
2013-10-04 20:52:00,73.0,64.2,30.09,South,182,0.0,0.0,74,0.00,CLR,,0.00,WeatherDisplay:10.37,2013-10-05 00:52:00,
2013-10-04 20:57:00,72.9,64.1,30.09,South,182,0.0,0.0,74,0.00,CLR,,0.00,WeatherDisplay:10.37,2013-10-05 00:57:00,
2013-10-04 21:02:00,72.8,64.4,30.09,South,182,0.0,0.0,75,0.00,CLR,,0.00,WeatherDisplay:10.37,2013-10-05 01:02:00,
2013-10-04 21:07:00,72.7,64.3,30.09,South,182,0.0,0.0,75,0.00,CLR,,0.00,WeatherDisplay:10.37,2013-10-05 01:07:00,
2013-10-04 21:12:00,72.4,64.0,30.09,South,182,0.0,0.0,75,0.00,CLR,,0.00,WeatherDisplay:10.37,2013-10-05 01:12:00,
2013-10-04 21:17:00,72.3,64.3,30.09,South,182,0.0,0.0,76,0.00,CLR,,0.00,WeatherDisplay:10.37,2013-10-05 01:17:00,
2013-10-04 21:22:00,72.1,64.1,30.09,South,182,0.0,0.0,76,0.00,CLR,,0.00,WeatherDisplay:10.37,2013-10-05 01:22:00,
2013-10-04 21:27:00,72.0,64.0,30.09,South,182,0.0,0.0,76,0.00,CLR,,0.00,WeatherDisplay:10.37,2013-10-05 01:27:00,
2013-10-04 21:32:00,71.9,64.3,30.10,South,182,0.0,0.0,77,0.00,CLR,,0.00,WeatherDisplay:10.37,2013-10-05 01:32:00,
2013-10-04 21:37:00,71.8,64.6,30.10,South,182,0.0,0.0,78,0.00,CLR,,0.00,WeatherDisplay:10.37,2013-10-05 01:37:00,
2013-10-04 21:42:00,71.6,64.4,30.10,South,182,0.0,0.0,78,0.00,CLR,,0.00,WeatherDisplay:10.37,2013-10-05 01:42:00,
2013-10-04 21:47:00,71.5,64.3,30.10,South,182,0.0,0.0,78,0.00,CLR,,0.00,WeatherDisplay:10.37,2013-10-05 01:47:00,
2013-10-04 21:52:00,71.3,64.1,30.10,South,182,0.0,0.0,78,0.00,CLR,,0.00,WeatherDisplay:10.37,2013-10-05 01:52:00,
2013-10-04 21:57:00,71.2,64.4,30.10,South,182,0.0,0.0,79,0.00,CLR,,0.00,WeatherDisplay:10.37,2013-10-05 01:57:00,
2013-10-04 22:02:00,71.1,64.3,30.11,South,182,0.0,0.0,79,0.00,CLR,,0.00,WeatherDisplay:10.37,2013-10-05 02:02:00,
2013-10-04 22:07:00,70.9,64.1,30.11,South,182,0.0,0.0,79,0.00,CLR,,0.00,WeatherDisplay:10.37,2013-10-05 02:07:00,
2013-10-04 22:12:00,70.8,64.3,30.10,South,182,0.0,0.0,80,0.00,CLR,,0.00,WeatherDisplay:10.37,2013-10-05 02:12:00,
2013-10-04 22:17:00,70.6,64.5,30.11,South,182,0.0,0.0,81,0.00,CLR,,0.00,WeatherDisplay:10.37,2013-10-05 02:17:00,
2013-10-04 22:22:00,70.4,64.3,30.10,South,182,0.0,0.0,81,0.00,CLR,,0.00,WeatherDisplay:10.37,2013-10-05 02:22:00,
2013-10-04 22:27:00,70.3,64.5,30.10,South,182,0.0,0.0,82,0.00,CLR,,0.00,WeatherDisplay:10.37,2013-10-05 02:27:00,
2013-10-04 22:32:00,70.1,64.3,30.11,South,182,0.0,0.0,82,0.00,CLR,,0.00,WeatherDisplay:10.37,2013-10-05 02:32:00,
2013-10-04 22:37:00,70.0,64.2,30.10,South,182,0.0,0.0,82,0.00,CLR,,0.00,WeatherDisplay:10.37,2013-10-05 02:37:00,
2013-10-04 22:42:00,69.9,64.5,30.10,South,182,0.0,0.0,83,0.00,CLR,,0.00,WeatherDisplay:10.37,2013-10-05 02:42:00,
2013-10-04 22:47:00,69.8,64.4,30.10,South,182,0.0,0.0,83,0.00,CLR,,0.00,WeatherDisplay:10.37,2013-10-05 02:47:00,
2013-10-04 22:52:00,69.7,64.6,30.10,South,182,0.0,0.0,84,0.00,CLR,,0.00,WeatherDisplay:10.37,2013-10-05 02:52:00,
2013-10-04 22:57:00,69.5,64.5,30.10,South,182,0.0,0.0,84,0.00,CLR,,0.00,WeatherDisplay:10.37,2013-10-05 02:57:00,
2013-10-04 23:02:00,69.5,64.5,30.10,South,182,0.0,0.0,84,0.00,CLR,,0.00,WeatherDisplay:10.37,2013-10-05 03:02:00,
2013-10-04 23:07:00,69.4,64.7,30.10,South,182,0.0,0.0,85,0.00,CLR,,0.00,WeatherDisplay:10.37,2013-10-05 03:07:00,
2013-10-04 23:12:00,69.3,64.6,30.10,South,182,0.0,0.0,85,0.00,CLR,,0.00,WeatherDisplay:10.37,2013-10-05 03:12:00,
2013-10-04 23:17:00,69.2,64.5,30.10,South,182,0.0,0.0,85,0.00,CLR,,0.00,WeatherDisplay:10.37,2013-10-05 03:17:00,
2013-10-04 23:22:00,69.1,64.4,30.10,South,182,0.0,0.0,85,0.00,CLR,,0.00,WeatherDisplay:10.37,2013-10-05 03:22:00,
2013-10-04 23:27:00,69.0,64.3,30.10,South,182,0.0,0.0,85,0.00,CLR,,0.00,WeatherDisplay:10.37,2013-10-05 03:27:00,
2013-10-04 23:32:00,68.8,64.4,30.10,South,182,0.0,0.0,86,0.00,CLR,,0.00,WeatherDisplay:10.37,2013-10-05 03:32:00,
2013-10-04 23:37:00,68.6,64.2,30.10,South,182,0.0,0.0,86,0.00,CLR,,0.00,WeatherDisplay:10.37,2013-10-05 03:37:00,
2013-10-04 23:42:00,68.3,63.6,30.09,South,182,0.0,0.0,85,0.00,CLR,,0.00,WeatherDisplay:10.37,2013-10-05 03:42:00,
2013-10-04 23:47:00,68.0,64.0,30.09,South,182,1.0,1.0,87,0.00,CLR,,0.00,WeatherDisplay:10.37,2013-10-05 03:47:00,
2013-10-04 23:52:00,67.7,63.7,30.09,South,182,2.3,2.3,87,0.00,CLR,,0.00,WeatherDisplay:10.37,2013-10-05 03:52:00,
2013-10-04 23:57:00,67.5,63.8,30.09,South,182,0.0,0.0,88,0.00,CLR,,0.00,WeatherDisplay:10.37,2013-10-05 03:57:00,